Home > Weather > Cumberland > Past weeks

Flag for USA Past Weather in Cumberland, Maryland, USA — Yesterday and Last 2 Weeks

Now
81 °F

Sunny.


Feels Like: 85 °F
Forecast: 73 / 95 °F
Wind: No wind

Location: Eastern West Virginia Regional Airport

Current Time: Jul 25, 2016 at 10:10:05 AM

Latest Report: Jul 25, 2016 at 8:53 AM


Visibility: 10 mi

Pressure: 29.96 "Hg

Humidity: 74%

Dew Point: 72 °F

Location of CumberlandLocation

Past Weather in Cumberland — Graph

°F

Cumberland Temperature Yesterday

Maximum temperature yesterday: 96 °F (at 3:53 PM)
Minimum temperature yesterday: 69 °F (at 4:53 AM)
Average temperature yesterday: 83 °F

High & Low Weather Summary for the Past Weeks

 TemperatureHumidityPressure
High96 °F (Jul 23, 3:53 PM)97% (Jul 11, 6:53 AM)30.22 "Hg (Jul 11, 6:53 AM)
Low57 °F (Jul 21, 5:53 AM)25% (Jul 21, 5:53 PM)29.83 "Hg (Jul 14, 4:53 PM)
Average78 °F64%30.03 "Hg
* Reported Jul 10 8:53 AM — Jul 25 8:53 AM, Cumberland, Weather by CustomWeather, © 2016

Note: Actual official high and low records may vary slightly from our data, if they occured in-between our weather recording intervals... More about our weather records

Advertising

Cumberland Weather History for the Previous 24 Hours

Scroll right to see more
 ConditionsComfort  
Time TempWeatherWind HumidityBarometerVisibility
8:53 AM
Mon, Jul 25
81 °FSunny.No wind74%29.96 "Hg10 mi
7:53 AM75 °FSunny.3 mph88%29.96 "Hg9 mi
6:53 AM73 °FFog.3 mph94%29.97 "Hg6 mi
5:53 AM71 °FClear.No wind93%29.96 "Hg8 mi
4:53 AM72 °FClear.No wind93%29.96 "Hg10 mi
3:53 AM74 °FPassing clouds.No wind91%29.96 "Hg10 mi
2:53 AM73 °FClear.3 mph94%29.96 "Hg9 mi
1:53 AM74 °FPassing clouds.No wind91%29.95 "Hg10 mi
12:53 AM76 °FPassing clouds.No wind88%29.97 "Hg10 mi
11:53 PM
Sun, Jul 24
76 °FClear.No wind88%29.97 "Hg10 mi
10:53 PM79 °FClear.3 mph77%29.97 "Hg10 mi
9:53 PM79 °FClear.5 mph77%29.97 "Hg10 mi
8:53 PM81 °FPassing clouds.8 mph74%29.95 "Hg10 mi
7:53 PM90 °FPartly sunny.7 mph48%29.94 "Hg10 mi
6:53 PM91 °FScattered clouds.7 mph47%29.92 "Hg10 mi
5:53 PM93 °FPassing clouds.9 mph41%29.92 "Hg10 mi
4:53 PM96 °FSunny.9 mph37%29.92 "Hg10 mi
3:53 PM96 °FPassing clouds.7 mph35%29.93 "Hg10 mi
2:53 PM94 °FScattered clouds.3 mph37%29.95 "Hg10 mi
1:53 PM92 °FScattered clouds.3 mph38%29.98 "Hg10 mi
12:53 PM92 °FSunny.9 mph38%29.99 "Hg10 mi
11:53 AM92 °FSunny.12 mph40%30.00 "Hg10 mi
10:53 AM88 °FSunny.7 mph50%29.99 "Hg10 mi
Weather by CustomWeather, © 2016

See weather overviewHow to use our weather pages